Location: Zilina
(0.0000°N, 18.7333°E)
Time: 20:53:20
(UTC+01:00)

COSMOS 2455 - Pass Details

Date: 19 February 2019
Orbit: 899 x 911 km, 67.1° (Epoch: 19 March)

Event Time Altitude Azimuth Distance (km) Brightness Sun altitude
Rises 18:56:29 0° 8° (N) 3,523 5.7 -14.1°
Reaches altitude 10° 18:59:40 10° 24° (NNE) 2,583 4.9 -14.9°
Enters shadow 19:02:21 18° 50° (NE) 2,050 4.2 -15.6°
